,,Stat6,,Stat2,,Stat8,,Stat9,,Stat10,,Wind1,,Wind1,
time,status,PA1M_AVG,status,PR1M_SUM,status,RH1M_AVG,status,SR1M_AVG,status,TA1M_AVG,status,W1dAve1m,status,W1sAve1m,
2004-09-05, 00:00:00,VALID,918.086,VALID,0,VALID,95.9883,VALID,-0.0169808,VALID,18.4491,VALID,114,VALID,1.01897,
2004-09-05, 00:01:00,VALID,918.08,VALID,0,VALID,95.8459,VALID,-0.0169808,VALID,18.4682,VALID,111,VALID,1.18075,
2004-09-05, 00:02:00,VALID,918.071,VALID,0,VALID,95.6641,VALID,-0.0339617,VALID,18.5137,VALID,107,VALID,1.02178,
2004-09-05, 00:03:00,VALID,918.081,VALID,0,VALID,95.4797,VALID,-0.0509425,VALID,18.5393,VALID,99,VALID,1.05984,
2004-09-05, 00:04:00,VALID,918.074,VALID,0,VALID,95.5267,VALID,-0.0339617,VALID,18.5586,VALID,109,VALID,1.20561,
2004-09-05, 00:05:00,VALID,918.066,VALID,0,VALID,95.5166,VALID,-0.0339617,VALID,18.5748,VALID,107,VALID,1.17696,
2004-09-05, 00:06:00,VALID,918.063,VALID,0,VALID,95.3207,VALID,-0.0679233,VALID,18.587,VALID,109,VALID,1.03993,
2004-09-05, 00:07:00,VALID,918.078,VALID,0,VALID,95.411,VALID,-0.0679233,VALID,18.5935,VALID,107,VALID,1.24019,
2004-09-05, 00:08:00,VALID,918.067,VALID,0,VALID,95.5725,VALID,-0.0169808,VALID,18.5902,VALID,115,VALID,1.01842,
2004-09-05, 00:09:00,VALID,918.074,VALID,0,VALID,95.6946,VALID,-0.0169808,VALID,18.5552,VALID,121,VALID,0.996701,
2004-09-05, 00:10:00,VALID,918.088,VALID,0,VALID,95.8764,VALID,-0.0169808,VALID,18.5164,VALID,122,VALID,0.710938,
2004-09-05, 00:11:00,VALID,918.096,VALID,0,VALID,96.0888,VALID,-0.0509425,VALID,18.4904,VALID,114,VALID,0.460565,
2004-09-05, 00:12:00,VALID,918.116,VALID,0,VALID,96.2274,VALID,-0.0509425,VALID,18.4581,VALID,115,VALID,0.518924,
2004-09-05, 00:13:00,VALID,918.119,VALID,0,VALID,96.277,VALID,0,VALID,18.4323,VALID,114,VALID,0.244234,
2004-09-05, 00:14:00,VALID,918.131,VALID,0,VALID,96.0875,VALID,-0.0339617,VALID,18.3972,VALID,114,VALID,0.109908,
2004-09-05, 00:15:00,VALID,918.142,VALID,0,VALID,96.3914,VALID,-0.0169808,VALID,18.3582,VALID,114,VALID,0.203299,
2004-09-05, 00:16:00,VALID,918.146,VALID,0,VALID,96.4639,VALID,-0.0679233,VALID,18.3421,VALID,114,VALID,0.0568182,
2004-09-05, 00:17:00,VALID,918.136,VALID,0,VALID,96.4715,VALID,-0.0339617,VALID,18.3059,VALID,114,VALID,0.122275,
2004-09-05, 00:18:00,VALID,918.14,VALID,0,VALID,96.5072,VALID,-0.0169808,VALID,18.2838,VALID,115,VALID,0.121466,
2004-09-05, 00:19:00,VALID,918.137,VALID,0,VALID,96.6483,VALID,-0.0679233,VALID,18.2609,VALID,115,VALID,0.198103,
2004-09-05, 00:20:00,VALID,918.139,VALID,0,VALID,96.8187,VALID,-0.0339617,VALID,18.2455,VALID,115,VALID,0.137326,
2004-09-05, 00:21:00,VALID,918.141,VALID,0,VALID,96.923,VALID,-0.0339617,VALID,18.2157,VALID,115,VALID,0.106517,
2004-09-05, 00:22:00,VALID,918.138,VALID,0,VALID,97.1061,VALID,0,VALID,18.1869,VALID,115,VALID,0.384337,
2004-09-05, 00:23:00,VALID,918.132,VALID,0,VALID,97.2701,VALID,-0.0169808,VALID,18.168,VALID,115,VALID,0.343369,
2004-09-05, 00:24:00,VALID,918.128,VALID,0,VALID,97.3731,VALID,-0.0169808,VALID,18.1553,VALID,115,VALID,0.411014,
2004-09-05, 00:25:00,VALID,918.118,VALID,0,VALID,97.485,VALID,-0.0679233,VALID,18.136,VALID,115,VALID,0.194931,
2004-09-05, 00:26:00,VALID,918.103,VALID,0,VALID,97.6211,VALID,-0.0849042,VALID,18.1161,VALID,134,VALID,0.311756,
2004-09-05, 00:27:00,VALID,918.083,VALID,0,VALID,97.7393,VALID,-0.0509425,VALID,18.1233,VALID,182,VALID,0.500888,
2004-09-05, 00:28:00,VALID,918.06,VALID,0,VALID,97.9606,VALID,-0.0169808,VALID,18.1161,VALID,182,VALID,0.615141,
2004-09-05, 00:29:00,VALID,918.052,VALID,0,VALID,98.248,VALID,0,VALID,18.1226,VALID,180,VALID,0.578711,
2004-09-05, 00:30:00,VALID,918.055,VALID,0,VALID,98.1704,VALID,-0.0679233,VALID,18.1065,VALID,179,VALID,0.478871,
2004-09-05, 00:31:00,VALID,918.038,VALID,0,VALID,97.9123,VALID,-0.0169808,VALID,18.0742,VALID,175,VALID,0.466082,
2004-09-05, 00:32:00,VALID,918.023,VALID,0,VALID,97.6859,VALID,-0.0339617,VALID,18.0255,VALID,159,VALID,0.549183,
2004-09-05, 00:33:00,VALID,918.025,VALID,0,VALID,97.8729,VALID,-0.0339617,VALID,17.99,VALID,149,VALID,0.656613,
2004-09-05, 00:34:00,VALID,918.013,VALID,0,VALID,98.1997,VALID,0,VALID,17.9937,VALID,144,VALID,0.605978,
2004-09-05, 00:35:00,VALID,918.023,VALID,0,VALID,98.1615,VALID,-0.0509425,VALID,17.9868,VALID,131,VALID,0.735119,
2004-09-05, 00:36:00,VALID,918.009,VALID,0,VALID,98.1984,VALID,-0.0679233,VALID,17.9647,VALID,128,VALID,0.903274,
2004-09-05, 00:37:00,VALID,918.022,VALID,0,VALID,98.3904,VALID,0,VALID,17.9713,VALID,127,VALID,0.970486,
2004-09-05, 00:38:00,VALID,918.024,VALID,0,VALID,98.4158,VALID,-0.0339617,VALID,17.9808,VALID,127,VALID,0.950707,
2004-09-05, 00:39:00,VALID,918.021,VALID,0,VALID,98.4286,VALID,-0.0339617,VALID,18.0094,VALID,125,VALID,0.939918,
2004-09-05, 00:40:00,VALID,918.022,VALID,0,VALID,98.2022,VALID,-0.0169808,VALID,18.0292,VALID,128,VALID,0.828125,
2004-09-05, 00:41:00,VALID,918.001,VALID,0,VALID,97.9898,VALID,-0.0169808,VALID,18.026,VALID,133,VALID,0.930069,
2004-09-05, 00:42:00,VALID,917.989,VALID,0,VALID,98.1221,VALID,-0.0339617,VALID,18.0322,VALID,135,VALID,0.898438,
2004-09-05, 00:43:00,VALID,917.974,VALID,0,VALID,98.2467,VALID,0,VALID,18.0714,VALID,138,VALID,0.754542,
2004-09-05, 00:44:00,VALID,917.951,VALID,0,VALID,98.2175,VALID,-0.0679233,VALID,18.0841,VALID,142,VALID,0.817224,
2004-09-05, 00:45:00,VALID,917.938,VALID,0,VALID,98.1374,VALID,-0.0509425,VALID,18.1005,VALID,131,VALID,0.841388,
2004-09-05, 00:46:00,VALID,917.922,VALID,0,VALID,98.2849,VALID,-0.0509425,VALID,18.1069,VALID,126,VALID,1.02198,
2004-09-05, 00:47:00,VALID,917.909,VALID,0,VALID,98.2989,VALID,-0.0849042,VALID,18.0686,VALID,103,VALID,0.954078,
2004-09-05, 00:48:00,VALID,917.912,VALID,0,VALID,98.5481,VALID,-0.0169808,VALID,18.0297,VALID,87,VALID,0.890625,
2004-09-05, 00:49:00,VALID,917.903,VALID,0,VALID,98.4629,VALID,-0.0679233,VALID,17.9817,VALID,59,VALID,0.911519,
2004-09-05, 00:50:00,VALID,917.89,VALID,0,VALID,98.3128,VALID,-0.0679233,VALID,17.9195,VALID,58,VALID,0.975818,
2004-09-05, 00:51:00,VALID,917.876,VALID,0,VALID,98.6295,VALID,-0.0169808,VALID,17.8932,VALID,61,VALID,0.839063,
2004-09-05, 00:52:00,VALID,917.855,VALID,0,VALID,98.8673,VALID,-0.0509425,VALID,17.8939,VALID,70,VALID,0.942951,
2004-09-05, 00:53:00,VALID,917.848,VALID,0,VALID,99.1114,VALID,-0.0339617,VALID,17.9132,VALID,77,VALID,0.852072,
2004-09-05, 00:54:00,VALID,917.847,VALID,0,VALID,99.3746,VALID,-0.0169808,VALID,17.9584,VALID,97,VALID,0.903088,
2004-09-05, 00:55:00,VALID,917.835,VALID,0,VALID,99.2309,VALID,0,VALID,18.0036,VALID,97,VALID,0.68532,
2004-09-05, 00:56:00,VALID,917.832,VALID,0,VALID,98.9563,VALID,0.0169808,VALID,18.0092,VALID,87,VALID,0.900746,
2004-09-05, 00:57:00,VALID,917.837,VALID,0,VALID,98.4654,VALID,0,VALID,17.9872,VALID,79,VALID,0.970424,
2004-09-05, 00:58:00,VALID,917.839,VALID,0,VALID,98.4934,VALID,-0.0169808,VALID,17.9605,VALID,71,VALID,1.10156,
2004-09-05, 00:59:00,VALID,917.838,VALID,0,VALID,98.4387,VALID,-0.0339617,VALID,17.958,VALID,67,VALID,1.05412,
2004-09-05, 01:00:00,VALID,917.814,VALID,0,VALID,98.4018,VALID,0,VALID,17.9351,VALID,64,VALID,0.973323,
2004-09-05, 01:01:00,VALID,917.796,VALID,0,VALID,98.501,VALID,0,VALID,17.9195,VALID,63,VALID,1.06995,
2004-09-05, 01:02:00,VALID,917.774,VALID,0,VALID,98.5646,VALID,-0.0169808,VALID,17.9132,VALID,65,VALID,0.962798,
2004-09-05, 01:03:00,VALID,917.761,VALID,0,VALID,98.6346,VALID,0,VALID,17.91,VALID,67,VALID,0.806726,
2004-09-05, 01:04:00,VALID,917.739,VALID,0,VALID,98.6473,VALID,-0.0169808,VALID,17.8738,VALID,69,VALID,0.838844,
2004-09-05, 01:05:00,VALID,917.731,VALID,0,VALID,98.6829,VALID,0,VALID,17.8641,VALID,80,VALID,0.692827,
2004-09-05, 01:06:00,VALID,917.706,VALID,0,VALID,98.66,VALID,-0.0169808,VALID,17.8422,VALID,88,VALID,0.664258,
2004-09-05, 01:07:00,VALID,917.705,VALID,0,VALID,98.8876,VALID,-0.0339617,VALID,17.8358,VALID,99,VALID,0.518466,
2004-09-05, 01:08:00,VALID,917.696,VALID,0,VALID,98.5824,VALID,-0.0169808,VALID,17.7966,VALID,99,VALID,0.370346,
2004-09-05, 01:09:00,VALID,917.677,VALID,0,VALID,98.4832,VALID,-0.0169808,VALID,17.7548,VALID,99,VALID,0.235742,
2004-09-05, 01:10:00,VALID,917.662,VALID,0,VALID,98.8494,VALID,-0.0339617,VALID,17.7419,VALID,102,VALID,0.5625,
2004-09-05, 01:11:00,VALID,917.653,VALID,0,VALID,98.6829,VALID,-0.0169808,VALID,17.735,VALID,102,VALID,0.27096,
2004-09-05, 01:12:00,VALID,917.651,VALID,0,VALID,97.7368,VALID,0,VALID,17.6391,VALID,102,VALID,0.145032,
2004-09-05, 01:13:00,VALID,917.649,VALID,0,VALID,96.9535,VALID,0,VALID,17.4616,VALID,102,VALID,0.405869,
2004-09-05, 01:14:00,VALID,917.645,VALID,0,VALID,97.115,VALID,-0.0339617,VALID,17.3355,VALID,78,VALID,0.671094,
2004-09-05, 01:15:00,VALID,917.644,VALID,0,VALID,97.9797,VALID,0,VALID,17.2737,VALID,71,VALID,0.919141,
2004-09-05, 01:16:00,VALID,917.648,VALID,0,VALID,99.3403,VALID,0,VALID,17.3385,VALID,79,VALID,0.856286,
2004-09-05, 01:17:00,VALID,917.63,VALID,0,VALID,99.587,VALID,-0.0169808,VALID,17.4097,VALID,80,VALID,0.599355,
2004-09-05, 01:18:00,VALID,917.638,VALID,0,VALID,99.1534,VALID,0,VALID,17.3738,VALID,80,VALID,0.360938,
2004-09-05, 01:19:00,VALID,917.639,VALID,0,VALID,99.6567,VALID,-0.0169808,VALID,17.3712,VALID,100,VALID,0.801736,
2004-09-05, 01:20:00,VALID,917.639,VALID,0,VALID,100,VALID,-0.0169808,VALID,17.468,VALID,112,VALID,0.970982,
2004-09-05, 01:21:00,VALID,917.629,VALID,0,VALID,99.9954,VALID,-0.0169808,VALID,17.5003,VALID,116,VALID,0.85061,
2004-09-05, 01:22:00,VALID,917.627,VALID,0,VALID,100,VALID,-0.0169808,VALID,17.5552,VALID,119,VALID,1.03516,
2004-09-05, 01:23:00,VALID,917.6,VALID,0,VALID,100,VALID,0,VALID,17.5875,VALID,121,VALID,1.04878,
2004-09-05, 01:24:00,VALID,917.578,VALID,0,VALID,100,VALID,0,VALID,17.6004,VALID,118,VALID,1.05523,
2004-09-05, 01:25:00,VALID,917.557,VALID,0,VALID,99.9692,VALID,0,VALID,17.6034,VALID,109,VALID,1.17099,
2004-09-05, 01:26:00,VALID,917.551,VALID,0,VALID,99.9491,VALID,-0.0169808,VALID,17.6128,VALID,97,VALID,0.882813,
2004-09-05, 01:27:00,VALID,917.537,VALID,0,VALID,99.7574,VALID,0,VALID,17.6264,VALID,96,VALID,0.871875,
2004-09-05, 01:28:00,VALID,917.532,VALID,0,VALID,99.7625,VALID,0,VALID,17.6163,VALID,90,VALID,0.795945,
2004-09-05, 01:29:00,VALID,917.542,VALID,0,VALID,99.7854,VALID,0,VALID,17.6359,VALID,101,VALID,0.80907,
2004-09-05, 01:30:00,VALID,917.546,VALID,0,VALID,99.9474,VALID,-0.0169808,VALID,17.678,VALID,113,VALID,1.13408,
2004-09-05, 01:31:00,VALID,917.549,VALID,0,VALID,99.2831,VALID,0,VALID,17.6681,VALID,107,VALID,0.541667,
2004-09-05, 01:32:00,VALID,917.554,VALID,0,VALID,98.3612,VALID,-0.0339617,VALID,17.5326,VALID,76,VALID,0.473958,
2004-09-05, 01:33:00,VALID,917.568,VALID,0,VALID,97.864,VALID,-0.0339617,VALID,17.4293,VALID,80,VALID,0.595203,
2004-09-05, 01:34:00,VALID,917.584,VALID,0,VALID,97.2841,VALID,-0.0339617,VALID,17.2907,VALID,55,VALID,1.10751,
2004-09-05, 01:35:00,VALID,917.593,VALID,0,VALID,97.8322,VALID,-0.0339617,VALID,17.187,VALID,52,VALID,1.09319,
2004-09-05, 01:36:00,VALID,917.598,VALID,0,VALID,98.8062,VALID,0,VALID,17.1976,VALID,68,VALID,1.14008,
2004-09-05, 01:37:00,VALID,917.618,VALID,0,VALID,99.8733,VALID,-0.0509425,VALID,17.2783,VALID,88,VALID,1.28423,
2004-09-05, 01:38:00,VALID,917.602,VALID,0,VALID,100,VALID,-0.0339617,VALID,17.4528,VALID,100,VALID,1.24867,
2004-09-05, 01:39:00,VALID,917.586,VALID,0,VALID,100,VALID,-0.0509425,VALID,17.5621,VALID,115,VALID,1.23533,
2004-09-05, 01:40:00,VALID,917.576,VALID,0,VALID,100,VALID,-0.0339617,VALID,17.6202,VALID,118,VALID,1.38045,
2004-09-05, 01:41:00,VALID,917.561,VALID,0,VALID,99.8894,VALID,-0.0849042,VALID,17.6197,VALID,119,VALID,1.34115,
2004-09-05, 01:42:00,VALID,917.548,VALID,0,VALID,99.6442,VALID,-0.0169808,VALID,17.6137,VALID,112,VALID,1.08469,
2004-09-05, 01:43:00,VALID,917.539,VALID,0,VALID,99.4395,VALID,-0.0509425,VALID,17.5745,VALID,106,VALID,0.90407,
2004-09-05, 01:44:00,VALID,917.534,VALID,0,VALID,99.2487,VALID,-0.0679233,VALID,17.5335,VALID,103,VALID,0.662388,
2004-09-05, 01:45:00,VALID,917.527,VALID,0,VALID,99.1267,VALID,-0.0679233,VALID,17.4652,VALID,102,VALID,0.573331,
2004-09-05, 01:46:00,VALID,917.524,VALID,0,VALID,99.2322,VALID,-0.0509425,VALID,17.4265,VALID,102,VALID,0.540516,
2004-09-05, 01:47:00,VALID,917.513,VALID,0,VALID,99.4776,VALID,-0.0509425,VALID,17.4041,VALID,105,VALID,0.783918,
2004-09-05, 01:48:00,VALID,917.509,VALID,0,VALID,99.3861,VALID,-0.0679233,VALID,17.3749,VALID,122,VALID,0.802912,
2004-09-05, 01:49:00,VALID,917.495,VALID,0,VALID,99.5743,VALID,-0.0679233,VALID,17.3426,VALID,139,VALID,0.985899,
2004-09-05, 01:50:00,VALID,917.479,VALID,0,VALID,99.8438,VALID,-0.0509425,VALID,17.346,VALID,133,VALID,1.23365,
2004-09-05, 01:51:00,VALID,917.454,VALID,0,VALID,100,VALID,-0.0509425,VALID,17.3749,VALID,117,VALID,1.12604,
2004-09-05, 01:52:00,VALID,917.428,VALID,0,VALID,100,VALID,-0.0509425,VALID,17.4104,VALID,121,VALID,1.16235,
2004-09-05, 01:53:00,VALID,917.419,VALID,0,VALID,99.9914,VALID,-0.0849042,VALID,17.4325,VALID,117,VALID,0.936257,
2004-09-05, 01:54:00,VALID,917.407,VALID,0,VALID,99.7574,VALID,-0.0679233,VALID,17.4102,VALID,101,VALID,0.680859,
2004-09-05, 01:55:00,VALID,917.391,VALID,0,VALID,99.6518,VALID,0.0339617,VALID,17.3938,VALID,96,VALID,0.576322,
2004-09-05, 01:56:00,VALID,917.396,VALID,0,VALID,99.1406,VALID,0.0169808,VALID,17.3092,VALID,96,VALID,0.490473,
2004-09-05, 01:57:00,VALID,917.4,VALID,0,VALID,99.0186,VALID,0.0339617,VALID,17.2449,VALID,95,VALID,0.536859,
2004-09-05, 01:58:00,VALID,917.393,VALID,0,VALID,98.1819,VALID,0.0339617,VALID,17.1059,VALID,95,VALID,0.381747,
2004-09-05, 01:59:00,VALID,917.394,VALID,0,VALID,97.4367,VALID,0.0679233,VALID,16.9222,VALID,95,VALID,0.224888,
2004-09-05, 02:00:00,VALID,917.383,VALID,0,VALID,97.6096,VALID,0.0169808,VALID,16.8125,VALID,95,VALID,0.172222,
2004-09-05, 02:01:00,VALID,917.389,VALID,0,VALID,98.276,VALID,0.0169808,VALID,16.7671,VALID,95,VALID,0.295099,
2004-09-05, 02:02:00,VALID,917.363,VALID,0,VALID,98.8062,VALID,0,VALID,16.7611,VALID,95,VALID,0.388021,
2004-09-05, 02:03:00,VALID,917.36,VALID,0,VALID,99.0771,VALID,0,VALID,16.7443,VALID,95,VALID,0.339558,
2004-09-05, 02:04:00,VALID,917.353,VALID,0,VALID,99.175,VALID,0.0509425,VALID,16.7226,VALID,95,VALID,0.409979,
2004-09-05, 02:05:00,VALID,917.336,VALID,0,VALID,99.2068,VALID,0.0169808,VALID,16.6933,VALID,95,VALID,0.283612,
2004-09-05, 02:06:00,VALID,917.346,VALID,0,VALID,99.3327,VALID,0.0169808,VALID,16.6711,VALID,95,VALID,0.259766,
2004-09-05, 02:07:00,VALID,917.34,VALID,0,VALID,99.8057,VALID,0.0339617,VALID,16.6866,VALID,95,VALID,0.446584,
2004-09-05, 02:08:00,VALID,917.329,VALID,0,VALID,100,VALID,0.0339617,VALID,16.7318,VALID,83,VALID,0.749645,
2004-09-05, 02:09:00,VALID,917.326,VALID,0,VALID,100,VALID,0.0509425,VALID,16.7961,VALID,81,VALID,0.897693,
2004-09-05, 02:10:00,VALID,917.321,VALID,0,VALID,100,VALID,0.0849042,VALID,16.8774,VALID,79,VALID,0.790698,
2004-09-05, 02:11:00,VALID,917.305,VALID,0,VALID,100,VALID,0.0509425,VALID,16.825,VALID,69,VALID,0.701791,
2004-09-05, 02:12:00,VALID,917.296,VALID,0,VALID,99.9306,VALID,0.0679233,VALID,16.7837,VALID,69,VALID,0.751367,
2004-09-05, 02:13:00,VALID,917.289,VALID,0,VALID,99.4853,VALID,0.0509425,VALID,16.6574,VALID,69,VALID,0.694531,
2004-09-05, 02:14:00,VALID,917.266,VALID,0,VALID,99.2042,VALID,0.0339617,VALID,16.5546,VALID,69,VALID,0.660069,
2004-09-05, 02:15:00,VALID,917.261,VALID,0,VALID,99.559,VALID,0.0849042,VALID,16.5088,VALID,70,VALID,0.707118,
2004-09-05, 02:16:00,VALID,917.233,VALID,0,VALID,99.9359,VALID,0.0849042,VALID,16.5449,VALID,73,VALID,0.767671,
2004-09-05, 02:17:00,VALID,917.196,VALID,0,VALID,100,VALID,0.0509425,VALID,16.6483,VALID,77,VALID,0.876598,
2004-09-05, 02:18:00,VALID,917.185,VALID,0,VALID,100,VALID,0.0509425,VALID,16.8161,VALID,79,VALID,0.986235,
2004-09-05, 02:19:00,VALID,917.15,VALID,0,VALID,100,VALID,0.0339617,VALID,16.9321,VALID,83,VALID,0.948289,
2004-09-05, 02:20:00,VALID,917.136,VALID,0,VALID,100,VALID,0.0169808,VALID,17.0063,VALID,88,VALID,0.980755,
2004-09-05, 02:21:00,VALID,917.129,VALID,0,VALID,100,VALID,0.0509425,VALID,17.1003,VALID,89,VALID,0.960392,
2004-09-05, 02:22:00,VALID,917.102,VALID,0,VALID,99.8828,VALID,0.0339617,VALID,17.1649,VALID,90,VALID,1.02852,
2004-09-05, 02:23:00,VALID,917.096,VALID,0,VALID,99.5387,VALID,0.0169808,VALID,17.2292,VALID,97,VALID,1.14753,
2004-09-05, 02:24:00,VALID,917.086,VALID,0,VALID,99.03,VALID,0.0679233,VALID,17.3163,VALID,99,VALID,0.910326,
2004-09-05, 02:25:00,VALID,917.064,VALID,0,VALID,97.6605,VALID,0.0509425,VALID,17.2742,VALID,100,VALID,0.670422,
2004-09-05, 02:26:00,VALID,917.052,VALID,0,VALID,98.2162,VALID,0.0509425,VALID,17.2516,VALID,101,VALID,0.894245,
2004-09-05, 02:27:00,VALID,917.051,VALID,0,VALID,98.5621,VALID,0.0339617,VALID,17.2578,VALID,112,VALID,0.970833,
2004-09-05, 02:28:00,VALID,917.033,VALID,0,VALID,98.3357,VALID,0.0339617,VALID,17.2227,VALID,119,VALID,0.994093,
2004-09-05, 02:29:00,VALID,917.025,VALID,0,VALID,98.3014,VALID,0.0509425,VALID,17.1679,VALID,127,VALID,0.954942,
2004-09-05, 02:30:00,VALID,917.018,VALID,0,VALID,98.4171,VALID,0.0339617,VALID,17.1098,VALID,129,VALID,0.968403,
2004-09-05, 02:31:00,VALID,916.995,VALID,0,VALID,98.8749,VALID,0.0339617,VALID,17.0737,VALID,139,VALID,0.886719,
2004-09-05, 02:32:00,VALID,916.978,VALID,0,VALID,98.9792,VALID,0.0509425,VALID,17.0614,VALID,136,VALID,0.709666,
2004-09-05, 02:33:00,VALID,916.982,VALID,0,VALID,98.9792,VALID,0.0169808,VALID,17.0356,VALID,128,VALID,0.654018,
2004-09-05, 02:34:00,VALID,916.979,VALID,0,VALID,99.0135,VALID,0.0339617,VALID,17.0005,VALID,127,VALID,0.551781,
2004-09-05, 02:35:00,VALID,916.974,VALID,0,VALID,99.1445,VALID,0,VALID,16.9551,VALID,127,VALID,0.69215,
2004-09-05, 02:36:00,VALID,916.976,VALID,0,VALID,99.5603,VALID,0.0509425,VALID,16.965,VALID,127,VALID,0.589844,
2004-09-05, 02:37:00,VALID,916.967,VALID,0,VALID,99.1381,VALID,0.0679233,VALID,16.9132,VALID,127,VALID,0.264027,
2004-09-05, 02:38:00,VALID,916.964,VALID,0,VALID,99.3594,VALID,0.0849042,VALID,16.8514,VALID,127,VALID,0.603516,
2004-09-05, 02:39:00,VALID,916.966,VALID,0,VALID,99.2831,VALID,0.0509425,VALID,16.8387,VALID,126,VALID,0.528819,
2004-09-05, 02:40:00,VALID,916.962,VALID,0,VALID,99.002,VALID,-0.0679233,VALID,16.772,VALID,126,VALID,0.346875,
2004-09-05, 02:41:00,VALID,916.957,VALID,0,VALID,98.9092,VALID,-0.0169808,VALID,16.6817,VALID,127,VALID,0.559766,
2004-09-05, 02:42:00,VALID,916.964,VALID,0,VALID,99.4446,VALID,-0.0339617,VALID,16.6627,VALID,132,VALID,0.713542,
2004-09-05, 02:43:00,VALID,916.97,VALID,0,VALID,99.8678,VALID,-0.0169808,VALID,16.6982,VALID,133,VALID,0.948289,
2004-09-05, 02:44:00,VALID,916.967,VALID,0,VALID,100,VALID,-0.0339617,VALID,16.7273,VALID,134,VALID,0.782422,
2004-09-05, 02:45:00,VALID,916.98,VALID,0,VALID,99.9977,VALID,-0.0509425,VALID,16.7402,VALID,130,VALID,0.623438,
2004-09-05, 02:46:00,VALID,916.986,VALID,0,VALID,100,VALID,-0.0679233,VALID,16.74,VALID,135,VALID,0.776296,
2004-09-05, 02:47:00,VALID,916.983,VALID,0,VALID,100,VALID,-0.0339617,VALID,16.7464,VALID,134,VALID,0.863991,
2004-09-05, 02:48:00,VALID,916.969,VALID,0,VALID,100,VALID,-0.0339617,VALID,16.8015,VALID,139,VALID,1.08203,
2004-09-05, 02:49:00,VALID,916.958,VALID,0,VALID,100,VALID,-0.0679233,VALID,16.8918,VALID,135,VALID,1.08079,
2004-09-05, 02:50:00,VALID,916.949,VALID,0,VALID,100,VALID,-0.0509425,VALID,16.9626,VALID,134,VALID,1.00127,
2004-09-05, 02:51:00,VALID,916.931,VALID,0,VALID,100,VALID,-0.0339617,VALID,16.9786,VALID,133,VALID,0.99256,
2004-09-05, 02:52:00,VALID,916.921,VALID,0,VALID,100,VALID,-0.0169808,VALID,16.9981,VALID,131,VALID,1.06357,
2004-09-05, 02:53:00,VALID,916.911,VALID,0,VALID,100,VALID,-0.0169808,VALID,17.011,VALID,130,VALID,0.971058,
2004-09-05, 02:54:00,VALID,916.898,VALID,0,VALID,100,VALID,-0.0679233,VALID,16.9818,VALID,132,VALID,0.638148,
2004-09-05, 02:55:00,VALID,916.894,VALID,0,VALID,100,VALID,-0.0339617,VALID,16.9465,VALID,132,VALID,0.582617,
2004-09-05, 02:56:00,VALID,916.891,VALID,0,VALID,99.7383,VALID,-0.0509425,VALID,16.8759,VALID,128,VALID,0.461293,
2004-09-05, 02:57:00,VALID,916.891,VALID,0,VALID,99.6824,VALID,-0.0169808,VALID,16.7944,VALID,128,VALID,0.688834,
2004-09-05, 02:58:00,VALID,916.878,VALID,0,VALID,99.9011,VALID,-0.0169808,VALID,16.7819,VALID,133,VALID,0.928267,
2004-09-05, 02:59:00,VALID,916.857,VALID,0,VALID,99.9415,VALID,-0.0679233,VALID,16.7623,VALID,133,VALID,0.827592,
2004-09-05, 03:00:00,VALID,916.837,VALID,0,VALID,99.9919,VALID,-0.0509425,VALID,16.7529,VALID,140,VALID,1.27697,
2004-09-05, 03:01:00,VALID,916.822,VALID,0,VALID,100,VALID,-0.0509425,VALID,16.8146,VALID,137,VALID,1.31641,
2004-09-05, 03:02:00,VALID,916.807,VALID,0,VALID,100,VALID,-0.0509425,VALID,16.8591,VALID,137,VALID,1.38815,
2004-09-05, 03:03:00,VALID,916.787,VALID,0,VALID,100,VALID,-0.0339617,VALID,16.914,VALID,134,VALID,1.44844,
2004-09-05, 03:04:00,VALID,916.778,VALID,0,VALID,100,VALID,-0.0169808,VALID,16.9788,VALID,130,VALID,1.46218,
2004-09-05, 03:05:00,VALID,916.77,VALID,0,VALID,100,VALID,-0.0339617,VALID,17.0272,VALID,129,VALID,1.53739,
2004-09-05, 03:06:00,VALID,916.772,VALID,0,VALID,100,VALID,-0.0339617,VALID,17.0661,VALID,121,VALID,1.41536,
2004-09-05, 03:07:00,VALID,916.764,VALID,0,VALID,100,VALID,-0.0509425,VALID,17.0762,VALID,120,VALID,1.60156,
2004-09-05, 03:08:00,VALID,916.766,VALID,0,VALID,100,VALID,-0.0509425,VALID,17.0922,VALID,122,VALID,1.75091,
2004-09-05, 03:09:00,VALID,916.775,VALID,0,VALID,100,VALID,-0.0679233,VALID,17.1178,VALID,120,VALID,1.53506,
2004-09-05, 03:10:00,VALID,916.779,VALID,0,VALID,100,VALID,-0.0849042,VALID,17.1401,VALID,121,VALID,1.51505,
2004-09-05, 03:11:00,VALID,916.78,VALID,0,VALID,99.9087,VALID,0,VALID,17.1496,VALID,116,VALID,1.61483,
2004-09-05, 03:12:00,VALID,916.783,VALID,0,VALID,99.7752,VALID,-0.0169808,VALID,17.1855,VALID,122,VALID,1.64528,
2004-09-05, 03:13:00,VALID,916.789,VALID,0,VALID,99.6391,VALID,-0.0169808,VALID,17.1987,VALID,127,VALID,1.39691,
2004-09-05, 03:14:00,VALID,916.772,VALID,0,VALID,99.5577,VALID,-0.0509425,VALID,17.2015,VALID,127,VALID,1.30114,
2004-09-05, 03:15:00,VALID,916.751,VALID,0,VALID,99.5679,VALID,-0.0679233,VALID,17.2081,VALID,131,VALID,1.36452,
2004-09-05, 03:16:00,VALID,916.735,VALID,0,VALID,99.3899,VALID,-0.0339617,VALID,17.2146,VALID,128,VALID,1.0989,
2004-09-05, 03:17:00,VALID,916.735,VALID,0,VALID,99.3352,VALID,-0.0339617,VALID,17.2075,VALID,126,VALID,1.25098,
2004-09-05, 03:18:00,VALID,916.726,VALID,0,VALID,99.1623,VALID,-0.0169808,VALID,17.2045,VALID,127,VALID,1.12593,
2004-09-05, 03:19:00,VALID,916.722,VALID,0,VALID,99.0567,VALID,-0.0509425,VALID,17.1752,VALID,127,VALID,1.0245,
2004-09-05, 03:20:00,VALID,916.737,VALID,0,VALID,98.9512,VALID,-0.0339617,VALID,17.1563,VALID,133,VALID,1.04018,
2004-09-05, 03:21:00,VALID,916.746,VALID,0,VALID,98.8342,VALID,-0.0849042,VALID,17.1305,VALID,123,VALID,1.05273,
2004-09-05, 03:22:00,VALID,916.75,VALID,0,VALID,98.7299,VALID,-0.0339617,VALID,17.0788,VALID,122,VALID,0.957698,
2004-09-05, 03:23:00,VALID,916.776,VALID,0,VALID,98.8558,VALID,0,VALID,17.0622,VALID,121,VALID,1.10621,
2004-09-05, 03:24:00,VALID,916.776,VALID,0,VALID,98.7681,VALID,-0.0339617,VALID,17.0558,VALID,120,VALID,0.950921,
2004-09-05, 03:25:00,VALID,916.775,VALID,0,VALID,98.8698,VALID,-0.0169808,VALID,17.0653,VALID,123,VALID,0.758721,
2004-09-05, 03:26:00,VALID,916.784,VALID,0,VALID,98.7846,VALID,-0.0339617,VALID,17.0687,VALID,120,VALID,0.712209,
2004-09-05, 03:27:00,VALID,916.79,VALID,0,VALID,98.6714,VALID,-0.0509425,VALID,17.0463,VALID,122,VALID,0.519804,
2004-09-05, 03:28:00,VALID,916.79,VALID,0,VALID,98.9003,VALID,-0.0339617,VALID,17.0465,VALID,117,VALID,0.568638,
2004-09-05, 03:29:00,VALID,916.798,VALID,0,VALID,98.7935,VALID,-0.0679233,VALID,17.0431,VALID,120,VALID,0.28924,
2004-09-05, 03:30:00,VALID,916.798,VALID,0,VALID,98.0318,VALID,-0.0679233,VALID,16.9564,VALID,119,VALID,0.306686,
2004-09-05, 03:31:00,VALID,916.812,VALID,0,VALID,98.7388,VALID,-0.0169808,VALID,16.914,VALID,81,VALID,0.706936,
2004-09-05, 03:32:00,VALID,916.82,VALID,0,VALID,98.7426,VALID,-0.0509425,VALID,16.9469,VALID,105,VALID,0.7141,